Regional Weather Roundup
Issued by NWS

Home | Current Version | Previous Version | Graphics & Text | Print | Product List | Glossary On
Versions: 1 2 3 4 5 6 7 8 9 10 11 12 13 14 15 16 17 18 19 20 21 22 23 24 25 26 27 28 29 30 31 32 33 34 35 36 37 38 39 40 41 42 43 44 45 46 47 48 49 50
000
ASUS43 KDMX 011904
RWRIA

WEATHER ROUNDUP FOR IOWA
NATIONAL WEATHER SERVICE DES MOINES IA
  ISSUED BY NWS QUAD CITIES IA IL
100 PM CST SUN FEB 01 2015

NOTE: "FAIR" INDICATES FEW OR NO CLOUDS BELOW 12,000 FEET WITH NO
SIGNIFICANT WEATHER AND/OR OBSTRUCTIONS TO VISIBILITY.

* - THESE STATIONS ARE NOT NWS STATIONS...THUS NOT UNDER NWS
QUALITY CONTROL.  THEY ALSO DO NOT REPORT WEATHER SUCH
AS PRECIPITATION OR FOG.

IAZ001>003-012>014-020>022-031>034-043>046-012000-
   NORTHWEST IOWA

CITY           SKY/WX    TMP DP  RH WIND       PRES   REMARKS
CARROLL *      SNOW      16  12  86 N30G39    30.01S VSB 1/4 WCI  -4
CHEROKEE *     LGT SNOW  13  10  87 N20G31    30.13R VSB 1   WCI  -5
DENNISON *     HVY RAIN  16  14  93 N24G36    30.03R VSB 1/2 WCI  -3
LE MARS *      LGT SNOW  12   9  85 N24G30    30.19R VSB 3/4 WCI  -8
SIOUX CITY     HAZE      13   7  77 N26G35    30.18S VSB 3/4 WCI  -7
SPENCER        LGT SNOW  14   8  77 N24G36    30.12R VSB 3/4 WCI  -5
$$

IAZ055>058-069>071-079>083-090>094-012000-
   SOUTHWEST IOWA

CITY           SKY/WX    TMP DP  RH WIND       PRES   REMARKS
ATLANTIC *     SNOW      19  16  86 N26G33    29.97R VSB 1/2 WCI   1
AUDUBON *      LGT SNOW  18  14  86 N17G28    30.00R VSB 3/4 WCI   2
CLARINDA *     MIX PCPN  23  19  86 N28G37    29.94R VSB 3/4 WCI   6
COUNCIL BLFS * LGT SNOW  18  16  93 N21G32    30.02R VSB 1   WCI   1
CRESTON *      LGT SNOW  19  18  93 N26G32    29.88R VSB 3/4 WCI   1
HARLAN *       LGT SNOW  18  18 100 N24G35    30.06R VSB 3/4 WCI   0
LAMONI         SNOW      25  22  88 N25G35    29.81R VSB 1/2 WCI   9
$$

IAZ047>049-059>061-072>074-084-012000-
   CENTRAL IOWA

CITY           SKY/WX    TMP DP  RH WIND       PRES   REMARKS
AMES           HAZE      18  13  80 N22G30    29.96S VSB 1   WCI   1
ANKENY *       SNOW      19  16  86 N22G29    29.93R VSB 1/2 WCI   3
BOONE *        SNOW      18  16  93 MISG      29.94R VSB 1/4
CHARITON *     MIX PCPN  23  19  86 N20G28    29.84R VSB 1/2 WCI   8
DES MOINES     SNOW      21  16  81 NE22G30   29.91R VSB 1/2 WCI   5
MARSHALLTOWN   SNOW      18  15  88 N22       29.92R VSB 1/2 WCI   1
PERRY *        LGT SNOW  20  17  88 N17G30    29.98R VSB 1   WCI   5
$$

IAZ004>006-015-016-023>025-035-036-012000-
   NORTH CENTRAL IOWA

CITY           SKY/WX    TMP DP  RH WIND       PRES   REMARKS
ALGONA *       SNOW      14  10  85 N24G39    30.08R VSB 1/4 WCI  -5
ESTHERVILLE    FOG       13  10  88 N25       30.12R VSB 3/4 WCI  -7
FORT DODGE *   CLOUDY    18  10  73 CALM      30.03S VSB 1/2
MASON CITY     LGT SNOW  14  10  84 N25       30.05R VSB 1   WCI  -5
WEBSTER CITY * LGT SNOW  18  18 100 N25G32    29.97S VSB 3/4 WCI  -1
IOWA FALLS *   LGT SNOW  17  13  84 N21G30    29.97R VSB 1   WCI   1
$$

IAZ007>011-017>019-026>030-037>042-050>054-066-012000-
   NORTHEAST IOWA

CITY           SKY/WX    TMP DP  RH WIND       PRES   REMARKS
CEDAR RAPIDS   SNOW      20  18  92 NE26G36   29.83F VSB 1/4 WCI   2
CHARLES CITY * LGT SNOW  16  12  86 NE22      30.01R WCI  -2
CLINTON *        N/A     23  19  86 NE25G36   29.82F VSB 1/2 WCI   7
DECORAH *      LGT SNOW  16  10  79 NE14G25   29.99S WCI   1
DUBUQUE        SNOW      18  14  84 NE26G35   29.86F VSB 1/2 WCI  -1
MONTICELLO *   SNOW      19  18  93 NE18G30   29.87F VSB 1/2 WCI   4
WATERLOO       LGT SNOW  17  14  88 NE21G32   29.95S VSB 3/4 WCI   0
$$

IAZ064-065-067-068-078-012000-
   EAST CENTRAL IOWA

CITY           SKY/WX    TMP DP  RH WIND       PRES   REMARKS
DAVENPORT      SNOW      24  20  84 NE24G33   29.79F VSB 1/4 WCI   8
IOWA CITY      SNOW      22  19  89 NE20G30   29.83F VSB 1/2 WCI   7
MT. PLEASANT * LGT SNOW  27  26  98 N23G30    29.73F WCI  12
MUSCATINE *    SNOW      25  21  86 NE26G33   29.78F VSB 1/2 WCI   9
QUAD CITIES    LGT SNOW  25  21  85 NE15G30   29.77F VSB 3/4 WCI  13
$$

IAZ062-063-075>077-085>089-095>099-012000-
   SOUTHEAST IOWA

CITY           SKY/WX    TMP DP  RH WIND       PRES   REMARKS
BURLINGTON     LGT SNOW  30  29  96 NE23G31   29.69F VSB 1   WCI  17
FAIRFIELD *    SNOW      25  21  86 NE24G31   29.77S VSB 1/2 WCI   9
FORT MADISON * LGT SNOW  30  30 100 NE17G23   29.70F WCI  18
KEOKUK *       LGT SNOW  34  32  93 N8        29.68F WCI  27
OTTUMWA        SNOW      23  20  88 N22G28    29.79R VSB 1/2 WCI   8
WASHINGTON *   SNOW      23  25 100 NE26G35   29.77F VSB 1/4 WCI   6
$$

ABBREVIATIONS USED IN REMARKS
   TC - TEMPERATURES IN CELSIUS
  WCI - WIND CHILL INDEX
   HX - HEAT INDEX
  VSB - VISIBILITY
$$


USA.gov is the U.S. government's official web portal to all federal, state and local government web resources and services.